Location: ??????
(38.0677°N, 22.9870°E)
Time: 15:08:47
(UTC+00:00)

ATLAS CENTAUR R/B - Pass Details

Date: 23 May 2024
Orbit: 443 x 588 km, 64.6° (Epoch: 13 June)

Event Time Altitude Azimuth Distance (km) Brightness Sun altitude
Exits shadow 01:41:34 17° 172° (S) 1,175 2.7 -15.3°
Maximum altitude 01:43:40 34° 115° (ESE) 746 2.2 -15.0°
Drops below altitude 10° 01:46:52 10° 49° (NE) 1,579 5.1 -14.5°
Sets 01:49:06 0° 40° (NE) 2,469 6.5 -14.2°
